Regional Weather Roundup
Issued by NWS Little Rock, AR

Home | Current Version | Previous Version | Graphics & Text | Print | Product List | Glossary On
Versions: 1 2 3 4 5 6 7 8 9 10 11 12 13 14 15 16 17 18 19 20 21 22 23 24 25 26 27 28 29 30 31 32 33 34 35 36 37 38 39 40 41 42 43 44 45 46 47 48 49 50
000
ASUS44 KLZK 250005
RWRLZK

WEATHER ROUNDUP FOR ARKANSAS
NATIONAL WEATHER SERVICE LITTLE ROCK AR
700 PM CDT THU JUL 24 2014

NOTE: "FAIR" INDICATES FEW OR NO CLOUDS BELOW 12,000 FEET WITH NO
SIGNIFICANT WEATHER AND/OR OBSTRUCTIONS TO VISIBILITY.

ARZ001-003-010-029-250100-
NORTHWEST ARKANSAS

CITY           SKY/WX    TMP DP  RH WIND       PRES   REMARKS
FAYETTEVILLE   SUNNY     83  68  60 S5        30.02F HX  86
6HR MIN TEMP:  76; 6HR MAX TEMP:  85;

FORT SMITH     SUNNY     85  70  60 E5        29.98F HX  89
6HR MIN TEMP:  81; 6HR MAX TEMP:  87;

HARRISON       SUNNY     80  62  54 VRB3      30.05S
6HR MIN TEMP:  77; 6HR MAX TEMP:  83;

BENTONVILLE    SUNNY     84  66  54 SW8       30.04F HX  86
6HR MIN TEMP:  81; 6HR MAX TEMP:  86;

ROGERS         SUNNY     85  63  47 E5        30.03F HX  86
6HR MIN TEMP:  81; 6HR MAX TEMP:  87;

SILOAM SPGS    SUNNY     82  64  54 SW8       30.03F
6HR MIN TEMP:  77; 6HR MAX TEMP:  84;

HIGHFILL       SUNNY     84  67  56 S5        30.03S HX  86
6HR MIN TEMP:  79; 6HR MAX TEMP:  86;

SPRINGDALE     MOSUNNY   84  64  51 S5        30.04F HX  86
$$

ARZ004-005-016-250100-
NORTH CENTRAL ARKANSAS

CITY           SKY/WX    TMP DP  RH WIND       PRES   REMARKS
BATESVILLE     SUNNY     82  57  42 CALM      30.01F
6HR MIN TEMP:  81; 6HR MAX TEMP:  84;

FLIPPIN        SUNNY     81  61  50 SE3       30.04S
6HR MIN TEMP:  79; 6HR MAX TEMP:  82;

MTN HOME       SUNNY     80  60  50 CALM      30.02F
6HR MIN TEMP:  77; 6HR MAX TEMP:  82;

$$

ARZ040-041-250100-
WEST CENTRAL ARKANSAS

CITY           SKY/WX    TMP DP  RH WIND       PRES   REMARKS
MENA           MOSUNNY   88  73  62 CALM      30.01F HX  96
MOUNT IDA      SUNNY     84  71  65 CALM      29.99F HX  89
6HR MIN TEMP:  78; 6HR MAX TEMP:  86;

$$

ARZ009-017-025-026-028-250100-
NORTHEAST ARKANSAS

CITY           SKY/WX    TMP DP  RH WIND       PRES   REMARKS
CORNING        FAIR      77  57  50 NE8       30.03R
JONESBORO      SUNNY     77  57  50 NE7       30.01F
6HR MIN TEMP:  77; 6HR MAX TEMP:  81;

NEWPORT        SUNNY     79  65  62 E7        30.02F
6HR MIN TEMP:  78; 6HR MAX TEMP:  81;

WALNUT RIDGE   SUNNY     79  61  53 E7        30.01S
6HR MIN TEMP:  79; 6HR MAX TEMP:  82;

BLYTHEVILLE    SUNNY     78  64  61 N5        30.00F
6HR MIN TEMP:  77; 6HR MAX TEMP:  81;

$$

ARZ022-023-033-042-044-250100-
CENTRAL ARKANSAS

CITY           SKY/WX    TMP DP  RH WIND       PRES   REMARKS
LITTLE ROCK    MOSUNNY   82  66  58 SE5       29.99F
6HR MIN TEMP:  80; 6HR MAX TEMP:  85;

N LITTLE ROCK  MOSUNNY   81  71  71 N5        29.99F HX  85
6HR MIN TEMP:  79; 6HR MAX TEMP:  83;

JACKSONVILLE   SUNNY     82  70  65 N2        30.00F HX  86
6HR MIN TEMP:  80; 6HR MAX TEMP:  85; 6HR PCP: TRACE;

SEARCY         SUNNY     82  65  56 N5        30.01F
6HR MIN TEMP:  80; 6HR MAX TEMP:  84;

HOT SPRINGS    PTSUNNY   84  71  65 E6        30.00F HX  89
6HR MIN TEMP:  78; 6HR MAX TEMP:  85;

RUSSELLVILLE   SUNNY     79  75  87 CALM      29.99F
6HR MIN TEMP:  79; 6HR MAX TEMP:  86;

CLINTON        FAIR      82  70  65 E3        30.01F HX  86
$$

ARZ036-250100-
EAST ARKANSAS

CITY           SKY/WX    TMP DP  RH WIND       PRES   REMARKS
WEST MEMPHIS   SUNNY     79  57  46 N12       29.99F
6HR MIN TEMP:  79; 6HR MAX TEMP:  83;

$$

ARZ050-053-066-070-073-250100-
SOUTHWEST ARKANSAS

CITY           SKY/WX    TMP DP  RH WIND       PRES   REMARKS
ARKADELPHIA    FAIR      84  74  72 CALM      29.99F HX  91
6HR MIN TEMP:  78; 6HR MAX TEMP:  86;

CAMDEN         SUNNY     84  70  61 N6        29.97F HX  88
TEXARKANA      MOSUNNY   81  72  74 NE5       29.99F HX  85
6HR MIN TEMP:  75; 6HR MAX TEMP:  83;

EL DORADO      SUNNY     85  73  67 N7        29.97F HX  91
6HR MIN TEMP:  84; 6HR MAX TEMP:  89;

DE QUEEN       SUNNY     85  72  65 SE5       29.96F HX  91
6HR MIN TEMP:  82; 6HR MAX TEMP:  87;

$$

ARZ056-057-069-250100-
SOUTHEAST ARKANSAS

CITY           SKY/WX    TMP DP  RH WIND       PRES   REMARKS
PINE BLUFF     SUNNY     80  67  64 NE6       29.99F
6HR MIN TEMP:  77; 6HR MAX TEMP:  81;

STUTTGART      SUNNY     81  64  57 N8        30.01F
6HR MIN TEMP:  79; 6HR MAX TEMP:  82;

MONTICELLO     SUNNY     81  71  71 NE5       29.98F HX  85
6HR MIN TEMP:  81; 6HR MAX TEMP:  86;


$$





USA.gov is the U.S. government's official web portal to all federal, state and local government web resources and services.